Soerstokken current weather conditions

sailwx.info

Wind from 120 at 13 knots

Air temperature 5.0° C
Visibility: greater than 5.4 NM
Dewpoint 2.0° C
Present weather: Light rain.

Last reported at 2017-Mar-30 05:20 UTC.
Time now 2017-Mar-30 06:49 UTC

Location: N 59°48' E 005°20'.
View on Google Maps.

See reports from other nearby stations

  
Tides and Currents Weather Stations Pressure Air Temp Water Temp Dewpoint Dewpoint Depression Visibility Wind Speed Wind Dir Waves Ship Positions
date/time (UTC)wind fromknots sea level pressurealtimeterstation pressurevisibilityair tempwater tempwave heightnotes
2017-Mar-30 05:20 120 13 5.4 5.0 Light rain.
2017-Mar-30 04:50 120 11 5.4 5.0 Rain.
2017-Mar-30 04:20 110 11 5.4 4.0 Light rain.
2017-Mar-30 03:50 130 13 5.4 4.0 Light rain.
2017-Mar-29 17:20 150 5 5.4 7.0
2017-Mar-29 16:20 5.4 8.0
2017-Mar-29 15:50 140 4 5.4 8.0
2017-Mar-29 15:20 150 4 5.4 7.0
2017-Mar-29 14:50 5.4 7.0
2017-Mar-29 14:20 5.4 8.0
2017-Mar-29 13:50 140 2 5.4 8.0
2017-Mar-29 13:20 180 2 5.4 7.0
2017-Mar-29 12:50 200 4 5.4 7.0
2017-Mar-29 12:20 5.4 8.0
2017-Mar-29 11:50 130 2 5.4 8.0
2017-Mar-29 11:20 130 4 5.4 7.0
2017-Mar-29 10:50 5.4 7.0
2017-Mar-29 10:20 150 2 5.4 6.0
2017-Mar-29 09:50 150 4 5.4 6.0
2017-Mar-29 07:50 140 5 5.4 5.0
2017-Mar-29 07:20 140 6 5.4 5.0
2017-Mar-29 06:20 130 6 5.4 5.0
2017-Mar-29 05:50 130 6 5.4 5.0
2017-Mar-29 05:20 110 4 5.4 5.0
2017-Mar-29 04:50 130 6 5.4 4.0
2017-Mar-29 04:20 120 6 5.4 4.0
2017-Mar-29 03:50 130 5 5.4 4.0
2017-Mar-28 17:20 350 1 5.4 8.0
2017-Mar-28 16:20 350 2 5.4 8.0
2017-Mar-28 15:50 330 4 5.410.0
2017-Mar-28 15:20 360 4 5.4 9.0
2017-Mar-28 14:50 330 2 5.4 9.0
2017-Mar-28 14:20 320 6 5.4 9.0
2017-Mar-28 13:50 350 6 5.4 9.0
2017-Mar-28 13:20 350 6 5.4 9.0
2017-Mar-28 12:50 350 6 5.410.0
2017-Mar-28 12:20 350 6 5.4 8.0
2017-Mar-28 11:50 330 5 5.4 8.0
2017-Mar-28 11:20 320 4 5.4 6.0
2017-Mar-28 10:20 340 2 5.4 5.0 Partial fog.
2017-Mar-28 09:50 320 2 0.2 5.0 Fog.
2017-Mar-28 08:50 360 2 0.1 4.0 Fog.
2017-Mar-28 08:20 330 2 0.1 4.0 Fog.
2017-Mar-28 07:50 330 4 0.1 4.0 Fog.
2017-Mar-28 07:20 320 2 0.1 4.0 Fog.
2017-Mar-28 06:50 0.2 7.0 Fog.
2017-Mar-28 06:20 0.1 3.0 Fog.